User: anonymous   Login
Location: Unspecified
(0.0000°N, 0.0000°E)
Time: 22:07:46
(UTC+00:00)
Language:

APRIZESAT 1 (LATINSAT C) - Orbit

View from above orbital plane
View from above orbital plane
View from above satellite
View from above satellite

Ground track
Ground track

The orbit data is extracted from the following two-line orbital elements,

1 28372U 04025G   17268.45302183  .00000073  00000-0  30317-4 0  9991
2 28372  98.2636 214.3917 0047144 141.9743 218.4795 14.49510595700099
Epoch (UTC): 25 September 2017 10:52:21
Eccentricity: 0.0047144
inclination: 98.2636°
perigee height: 694 km
apogee height: 761 km
right ascension of ascending node: 214.3917°
argument of perigee: 141.9743°
revolutions per day: 14.49510595
mean anomaly at epoch: 218.4795°
orbit number at epoch: 70009

The dashed part of the orbit path shows where the satellite is in the earth's shadow,  

DLR